Location: Gu�tanj
(46.5431°N, 14.9692°E)
Time: 21:34:51
(UTC+00:00)

Cosmos 1992 Rocket - Pass Details

Date: 03 March 2021
Orbit: 759 x 765 km, 74.0° (Epoch: 21 April)

Event Time Altitude Azimuth Distance (km) Brightness Sun altitude
Rises 17:47:18 0° 194° (SSW) 3,216 7.4 -10.8°
Reaches altitude 10° 17:49:40 10° 193° (SSW) 2,294 6.6 -11.2°
Maximum altitude 17:54:51 74° 109° (ESE) 798 3.9 -12.1°
Drops below altitude 10° 18:00:05 10° 25° (NNE) 2,308 6.3 -13.0°
Sets 18:02:28 0° 24° (NNE) 3,237 7.0 -13.4°
